Location: Ciula Mare
(45.6000°N, 22.8167°E)
Time: 21:50:10
(UTC+00:00)

Cosmos 1461 - Pass Details

Date: 03 February 2023
Orbit: 492 x 644 km, 65.0° (Epoch: 22 March)

Event Time Altitude Azimuth Distance (km) Brightness Sun altitude
Rises 17:38:23 0° 232° (SW) 2,749 7.2 -21.4°
Reaches altitude 10° 17:40:37 10° 239° (WSW) 1,883 6.4 -21.7°
Maximum altitude 17:44:42 44° 312° (NW) 826 3.9 -22.5°
Enters shadow 17:46:43 27° 9° (N) 1,189 4.4 -22.8°
